GEFSSE_con_cape1000_090.txt.gz
Probability
94 97 100 100 100 100 100 100 100 100 100 100 100 100 100 100 100 100 97 97 100 100 100 100 100 94 97 100 97 94 100 100 100 100 100 100 100 97 97 94 94 87 90
97 100 100 100 100 100 100 100 100 100 100 100 100 100 100 100 100 100 97 94 90 90 94 94 97 97 100 100 97 100 100 100 100 100 100 100 94 94 100 97 97 84 94
100 100 100 100 100 100 100 100 100 100 100 100 100 100 100 100 100 100 94 94 90 97 97 100 100 97 97 97 97 100 100 100 97 100 100 90 94 94 97 94 97 97 97
97 100 100 100 100 100 100 100 100 100 100 100 100 100 100 100 100 100 97 100 97 94 87 94 94 97 94 94 94 90 94 97 94 100 94 87 77 97 94 94 94 97 100
100 100 100 100 100 100 100 100 100 100 100 100 100 100 100 100 100 100 100 94 94 94 90 94 94 84 87 87 87 90 90 94 97 97 97 94 94 97 94 94 97 97 97
100 100 100 100 100 100 100 100 100 100 100 100 100 100 100 97 97 94 94 94 97 97 94 94 87 84 87 87 90 87 97 97 94 100 100 100 97 100 100 100 100 97 97
100 100 100 100 100 100 100 100 100 100 100 100 100 100 100 100 94 94 97 94 90 87 90 90 87 84 81 74 84 90 90 97 97 97 100 100 100 100 100 100 100 100 97
100 100 100 100 100 100 100 100 100 100 100 100 100 100 100 97 97 97 97 94 87 87 87 90 87 87 81 77 81 84 87 90 94 84 97 100 100 100 100 100 100 100 100
100 100 100 100 100 100 100 100 100 100 100 100 100 100 100 100 100 94 94 94 90 87 87 87 87 84 84 87 87 90 94 94 90 84 97 100 100 100 100 100 100 100 100
100 100 100 100 100 100 100 100 100 100 100 100 100 100 97 100 100 97 97 97 97 97 94 94 90 87 90 94 97 90 94 94 81 65 90 100 100 100 100 100 100 100 100
97 97 100 100 100 100 100 100 100 100 100 100 97 94 94 94 94 97 97 97 94 97 97 97 100 100 97 97 97 97 97 90 45 58 87 100 100 100 100 100 100 100 100
97 97 97 97 97 97 100 100 100 100 100 100 97 94 90 90 94 90 87 97 94 94 97 97 100 100 94 94 97 97 90 77 39 58 90 97 97 100 100 100 100 100 100
100 97 97 97 97 97 100 100 100 100 100 94 94 94 94 94 81 81 84 84 90 94 100 100 97 97 97 87 90 90 84 55 35 35 87 100 100 100 100 100 100 100 100
100 100 97 97 97 100 97 97 97 100 97 94 94 90 87 84 77 84 77 77 87 94 100 100 94 90 87 87 87 81 74 58 52 61 84 87 97 100 100 100 100 100 100
100 97 100 97 97 94 94 94 94 94 97 94 94 94 90 81 77 77 71 81 84 87 94 100 94 87 81 77 74 77 77 68 65 71 81 90 90 97 100 100 100 100 100
100 97 94 90 94 97 97 94 97 97 94 94 94 94 94 81 87 84 87 87 90 87 87 74 68 74 71 74 74 77 71 68 71 77 71 87 94 94 97 100 100 100 100
97 94 90 94 94 94 94 94 90 94 94 90 94 94 84 84 81 77 71 74 77 68 77 81 61 58 52 48 58 68 65 74 77 74 68 74 81 81 94 100 100 100 100
94 94 90 90 90 90 90 90 90 81 81 84 74 68 55 58 55 58 61 61 71 61 58 55 55 42 39 39 35 52 52 61 65 74 68 71 68 65 81 97 100 100 100
87 90 87 87 87 84 87 87 84 84 71 77 65 55 48 45 42 42 55 58 42 42 48 23 32 35 35 35 32 35 42 48 55 45 65 71 71 71 68 77 97 100 100
87 90 90 90 84 87 84 84 77 71 65 58 58 55 42 42 39 39 48 39 32 35 39 29 26 35 32 35 6 10 26 26 39 35 42 39 52 55 55 65 77 77 97
84 84 87 81 77 84 87 94 84 74 65 55 52 45 39 26 26 32 26 32 32 29 32 26 23 16 23 26 16 16 16 16 16 19 32 32 32 42 52 61 65 65 61
87 90 90 87 84 84 90 94 90 74 65 61 58 48 35 35 29 13 45 29 39 35 26 23 19 10 10 6 10 3 3 0 13 3 19 19 13 26 42 26 48 55 52
84 90 87 90 90 90 87 77 71 74 77 71 68 71 48 32 29 35 29 29 35 26 19 23 16 13 6 3 6 3 0 0 0 0 10 13 26 29 23 23 39 48 45
77 90 94 94 94 94 90 84 74 68 65 65 58 55 45 39 35 39 32 39 35 29 29 16 6 6 3 3 3 3 0 0 0 0 0 3 3 16 16 6 13 19 32
61 87 94 97 94 81 68 65 65 65 48 42 42 42 42 42 42 39 39 35 35 29 23 10 10 10 6 6 6 3 0 0 0 0 0 0 0 3 6 23 29 23 19
55 68 77 81 77 71 55 52 45 48 42 39 35 35 29 32 35 29 23 35 26 19 16 10 6 6 6 6 6 3 3 3 3 0 0 0 0 0 0 6 16 29 23

GEFSSE_con_cape1000_096.txt.gz
Probability
97 100 100 100 100 100 100 100 100 100 100 100 100 100 100 100 100 100 100 100 100 100 100 100 100 100 100 100 100 100 100 100 100 100 100 97 100 97 97 97 94 87 94
97 100 100 100 100 100 100 100 100 100 100 100 100 100 100 100 100 100 100 100 100 100 100 100 100 100 100 100 100 100 100 100 100 100 97 94 97 100 100 100 94 90 94
97 100 100 100 100 100 100 100 100 100 100 100 100 100 100 100 100 100 100 100 100 97 100 100 100 100 100 100 100 100 100 100 100 100 94 94 94 100 97 97 100 97 94
100 100 100 100 100 100 100 100 100 100 100 100 100 100 100 100 100 100 100 100 100 97 97 97 97 97 100 100 100 100 97 97 100 90 55 77 87 94 97 97 97 94 94
100 100 100 100 100 100 100 100 100 100 100 100 100 100 100 100 100 100 100 100 100 97 97 94 94 94 97 100 100 97 97 97 100 90 45 61 87 97 97 100 100 97 97
100 100 100 100 100 100 100 100 100 100 100 100 100 100 100 100 97 94 97 97 97 97 97 94 90 81 87 90 94 97 97 97 90 55 42 61 90 97 97 100 100 100 97
97 97 100 100 100 100 100 100 100 100 100 100 100 100 100 100 97 94 97 94 94 94 94 94 90 90 87 87 84 87 94 94 71 52 42 61 94 100 100 100 100 100 97
97 97 97 97 100 100 100 100 100 100 100 100 100 100 100 100 100 100 100 94 94 94 94 94 90 87 87 87 87 87 90 87 81 74 55 71 100 100 100 100 100 100 97
97 97 97 97 97 97 100 100 100 100 100 100 100 100 100 100 100 100 97 97 97 97 94 94 87 84 84 87 94 94 94 97 55 48 55 81 100 100 100 100 100 100 97
90 97 97 97 97 97 97 100 100 100 100 100 100 100 100 100 100 97 100 100 97 97 97 94 84 90 87 87 94 94 94 90 35 23 35 77 100 100 100 100 100 100 97
87 87 97 97 97 97 97 97 100 100 100 100 100 100 94 90 87 87 97 100 94 90 90 94 94 97 97 97 97 97 97 58 13 19 26 87 100 100 100 100 100 100 100
87 87 84 94 94 94 97 97 97 97 94 94 90 87 81 77 81 87 87 90 84 87 87 94 94 97 94 84 87 94 90 45 16 10 16 97 100 100 100 100 100 100 100
90 90 84 87 90 90 94 94 94 87 81 81 77 71 61 65 61 65 65 71 74 74 71 77 81 71 68 52 45 58 61 42 16 10 26 94 97 94 100 100 100 100 100
81 84 84 87 87 87 87 87 81 74 71 65 61 58 55 42 42 48 48 58 55 48 42 42 45 55 45 35 29 26 32 26 19 13 19 84 84 84 87 90 100 100 100
81 90 84 81 81 74 71 81 71 71 71 68 61 52 45 42 39 32 29 23 26 32 23 23 26 23 26 19 23 23 19 26 29 16 16 65 77 81 87 87 87 100 100
77 77 84 77 68 61 55 52 58 61 55 55 45 48 42 32 29 23 19 23 16 13 10 10 6 6 3 10 16 10 13 13 13 13 6 48 81 77 84 90 94 94 100
77 74 61 65 58 55 48 42 45 45 48 55 45 39 29 16 13 10 3 3 3 6 6 10 10 3 3 3 0 0 3 6 6 6 6 13 19 65 84 90 94 97 94
68 65 58 65 55 48 48 42 39 35 42 32 23 19 16 16 13 13 10 10 6 3 3 3 3 3 3 0 0 0 0 0 0 0 3 6 6 19 61 84 94 97 94
58 52 48 48 48 39 32 32 26 29 26 13 10 13 23 23 16 10 6 6 3 6 3 3 3 3 3 0 0 0 0 0 0 0 0 0 0 6 6 35 87 84 90
52 45 35 35 35 39 32 26 26 19 10 10 13 16 19 19 19 10 6 6 6 6 3 3 3 3 3 3 3 0 0 0 0 0 0 0 0 3 3 3 19 45 77
35 32 35 35 35 32 32 26 19 19 19 16 16 16 13 16 13 6 3 3 6 6 3 3 3 3 3 0 0 0 0 0 0 0 0 0 0 0 6 6 6 3 13
39 32 32 32 32 32 32 29 13 19 16 13 16 16 13 10 6 6 6 6 6 6 3 3 3 0 0 0 0 0 0 0 0 0 0 0 0 0 0 0 3 6 3
39 29 35 29 29 29 29 16 16 13 10 6 6 6 3 3 6 6 3 3 3 3 0 0 0 0 0 0 0 0 0 0 0 0 0 0 0 0 0 0 0 3 3
39 39 29 32 32 23 19 19 13 10 10 0 3 3 3 3 3 3 0 0 3 0 0 0 0 0 0 0 0 0 0 0 0 0 0 0 0 0 0 0 0 0 0
35 32 32 26 23 16 16 16 13 3 0 0 0 0 3 0 0 0 0 0 0 0 0 0 0 0 0 0 0 0 0 0 0 0 0 0 0 0 0 0 0 0 0
39 39 26 26 23 19 16 16 10 3 0 0 0 0 0 0 0 0 0 0 0 0 0 0 0 0 0 0 0 0 0 0 0 0 0 0 0 0 0 0 0 0 0

GEFSSE_con_cape1000_102.txt.gz
Probability
90 94 100 100 100 100 100 100 100 100 100 100 100 100 100 100 100 100 100 100 100 100 90 94 97 94 90 90 90 90 97 97 94 90 84 90 100 100 100 94 90 87 94
87 97 100 100 100 100 100 100 100 100 100 100 100 100 100 100 100 100 100 100 100 97 94 94 97 94 90 94 100 97 97 97 97 90 90 94 100 97 97 94 94 87 94
94 97 100 100 100 100 100 100 100 100 100 100 100 100 100 100 100 100 97 97 97 97 94 94 94 97 100 100 100 100 97 97 97 97 94 84 100 97 97 94 94 94 94
97 97 100 100 100 100 100 100 100 100 100 100 100 100 100 100 100 97 97 100 100 97 90 90 94 97 100 100 100 100 100 94 94 94 81 84 84 97 97 97 94 90 90
94 100 100 100 100 100 100 100 100 100 100 100 100 100 100 100 100 100 100 100 97 94 90 90 90 97 97 100 100 100 100 94 90 74 71 77 97 100 97 97 97 97 97
94 97 100 100 100 100 100 100 100 100 100 100 100 100 100 100 100 100 100 100 100 94 90 90 87 90 94 94 97 97 94 94 87 65 71 87 97 97 97 97 97 97 100
94 97 97 100 100 100 100 100 100 100 100 100 100 100 100 100 100 97 97 97 97 94 94 94 87 87 90 90 94 94 97 94 39 58 71 90 97 100 100 97 97 97 97
97 97 97 100 100 100 100 100 100 100 100 100 100 100 100 100 97 97 97 97 94 94 94 90 90 94 90 87 87 90 90 87 68 58 74 84 100 100 100 100 97 97 97
94 97 97 100 100 100 100 100 100 100 100 100 100 100 100 100 100 97 100 94 94 94 94 90 90 87 90 90 97 97 94 87 32 61 65 87 100 100 100 100 97 97 97
87 94 97 97 97 97 100 100 100 100 100 100 100 100 100 100 100 100 100 97 97 97 94 87 84 84 87 87 94 94 97 81 26 42 71 84 100 100 100 100 100 97 97
87 87 90 90 97 97 97 100 100 100 100 100 100 100 94 90 90 90 97 100 100 97 97 97 90 90 94 94 94 94 81 39 32 42 52 84 100 100 100 100 100 100 97
87 94 87 94 97 97 97 97 94 94 94 94 90 87 84 84 84 84 87 97 97 94 97 97 94 94 87 71 81 81 65 32 23 29 45 87 97 100 100 100 100 100 100
74 84 84 87 97 97 90 87 87 84 81 77 71 68 65 58 61 68 68 65 58 68 61 61 65 74 61 52 45 42 45 42 35 32 26 87 100 100 100 100 100 100 100
68 74 71 81 87 84 81 84 77 71 65 61 61 61 52 45 45 45 42 42 39 39 42 45 48 42 52 42 35 32 39 32 29 19 23 77 87 100 97 100 97 100 100
61 61 65 71 71 61 58 74 61 61 58 58 52 45 39 35 29 26 23 19 29 32 26 19 26 29 35 29 32 19 23 13 16 16 23 52 81 87 97 94 94 97 100
45 48 55 61 52 48 45 48 52 48 48 48 39 32 32 29 26 16 23 23 16 13 16 16 16 13 19 19 13 13 16 13 16 23 13 19 52 74 84 87 90 97 100
48 48 48 42 35 35 35 48 45 42 35 35 35 29 29 19 10 6 10 10 10 10 10 6 6 6 3 3 0 3 3 6 13 16 10 19 29 45 71 81 90 90 87
39 42 39 45 39 32 26 32 32 26 19 32 32 23 16 13 6 3 6 3 3 6 6 6 3 3 3 3 0 0 0 0 3 3 3 6 10 13 32 61 87 84 87
32 32 32 29 26 19 19 13 13 10 16 13 13 10 10 6 10 6 6 6 3 3 3 3 3 3 3 0 3 3 0 0 0 0 0 0 3 6 6 13 52 77 61
26 26 29 23 16 13 13 13 10 6 10 10 10 6 6 10 10 6 3 3 3 3 3 0 3 0 3 3 3 3 0 0 0 0 0 0 0 0 3 3 6 19 45
26 23 23 23 13 13 13 10 10 6 6 6 6 6 10 10 10 3 3 3 3 3 0 0 0 3 3 3 3 0 0 0 0 0 0 0 0 0 0 0 3 6 10
23 19 19 16 16 10 10 3 6 6 6 3 3 6 6 10 6 6 3 3 3 0 0 0 0 3 0 0 0 0 0 0 0 0 0 0 0 0 0 0 0 3 6
19 19 23 16 13 10 10 3 6 3 3 3 3 3 3 3 6 3 3 3 0 0 0 0 0 0 0 0 0 0 0 0 0 0 0 0 0 0 0 0 0 3 3
19 16 16 13 13 13 6 6 6 6 3 3 3 3 3 3 3 3 3 3 0 0 0 0 0 0 0 0 0 0 0 0 0 0 0 0 0 0 0 0 0 0 0
19 16 13 13 13 13 6 6 6 3 3 0 0 0 0 3 3 3 3 0 0 0 0 0 0 0 0 0 0 0 0 0 0 0 0 0 0 0 0 0 0 0 0
19 16 13 13 13 13 6 6 6 3 3 0 0 0 0 0 0 0 0 0 0 0 0 0 0 0 0 0 0 0 0 0 0 0 0 0 0 0 0 0 0 0 0

GEFSSE_con_cape1000_108.txt.gz
Probability
58 81 100 100 100 100 100 100 100 100 100 100 100 100 100 100 100 100 100 100 97 94 94 94 94 94 90 90 87 90 84 87 90 87 90 90 100 100 97 97 90 87 94
61 87 100 100 100 100 100 100 100 100 100 100 100 100 100 100 100 100 100 97 87 90 90 94 87 84 90 94 94 90 90 90 87 90 87 94 100 97 94 94 94 94 94
61 90 100 100 100 100 100 100 100 100 100 100 100 100 100 100 100 100 97 94 90 84 90 90 90 94 100 97 100 100 90 94 94 90 87 87 90 94 94 90 90 90 94
71 87 94 100 100 100 100 100 100 100 100 100 100 100 100 100 97 94 97 97 97 90 90 94 90 97 97 100 100 100 100 97 100 97 65 74 84 94 90 90 90 94 90
84 90 100 100 97 100 100 100 100 100 100 100 100 100 100 97 97 100 100 97 97 94 94 94 94 94 97 100 100 100 100 97 84 84 65 74 94 97 97 90 87 90 97
87 87 100 97 97 97 100 100 100 100 100 100 100 100 100 100 100 97 97 97 97 94 94 94 94 94 97 97 97 97 97 94 87 42 74 65 94 100 97 90 90 94 94
84 94 97 97 97 97 100 100 100 100 100 100 100 100 100 97 97 94 94 94 97 94 90 90 87 90 94 97 97 97 94 90 61 42 55 55 100 100 100 97 94 97 100
81 87 100 97 100 97 100 100 100 100 100 100 100 100 100 97 94 97 97 90 87 90 94 90 90 94 90 90 94 94 84 87 45 39 58 74 100 100 97 100 100 100 100
84 90 100 97 97 97 100 100 100 100 100 100 100 100 100 94 94 97 94 94 94 84 87 87 90 87 87 90 94 94 84 87 65 52 35 84 100 100 97 97 97 97 97
90 94 94 90 100 100 100 100 100 100 100 100 100 100 100 97 94 94 94 97 97 94 84 81 81 87 90 90 97 97 94 90 55 42 58 90 97 100 97 97 97 97 97
94 94 97 97 100 100 94 97 100 100 100 100 100 100 100 94 87 97 97 97 97 94 94 87 94 90 84 90 90 90 87 81 52 48 74 94 97 97 97 97 97 97 97
94 94 97 100 100 97 94 97 97 97 100 97 97 97 97 97 94 84 94 97 97 90 94 84 81 81 74 58 74 87 68 65 45 52 84 90 87 97 94 97 97 97 97
97 90 94 94 97 94 94 97 97 97 100 100 97 100 97 97 90 84 90 87 94 81 87 84 74 71 45 58 68 58 58 42 58 39 68 97 97 100 100 97 94 97 97
94 94 94 90 90 90 90 94 97 100 100 97 100 94 94 90 84 74 90 84 81 90 81 65 65 55 48 52 61 45 39 42 45 39 84 87 84 97 100 100 94 94 97
87 84 90 94 90 94 94 97 97 100 94 90 97 90 87 77 74 68 84 81 65 74 65 68 45 45 42 39 39 29 35 45 35 48 61 77 77 84 94 100 94 94 97
90 90 87 90 94 94 94 94 100 94 97 87 90 84 84 81 81 71 68 71 55 58 45 52 45 48 48 52 39 39 39 35 52 55 39 55 68 68 71 87 94 94 97
87 84 87 90 94 94 94 90 94 87 87 81 81 68 65 65 71 58 45 45 42 39 52 42 39 42 42 42 48 39 35 42 35 42 52 45 52 68 65 68 81 87 84
77 84 81 68 87 90 90 87 77 84 77 68 68 61 58 55 52 52 39 35 39 39 42 48 48 35 35 32 35 29 26 39 32 39 35 45 39 35 58 58 68 71 71
74 81 77 81 81 87 84 84 84 87 71 61 48 55 58 52 48 42 39 42 39 23 26 23 26 29 26 29 19 32 29 29 32 26 26 26 39 45 42 48 45 58 65
61 68 81 77 77 87 90 84 81 74 58 55 58 55 45 42 42 39 32 39 19 19 26 23 23 29 32 29 10 6 16 13 19 19 23 16 16 26 29 26 35 45 52
61 68 71 74 81 97 84 74 71 58 58 55 45 48 42 35 35 39 19 45 35 19 16 16 13 13 13 16 6 6 6 6 6 10 16 16 10 13 26 32 32 39 39
55 68 77 74 87 84 87 77 74 61 52 45 39 55 39 35 39 29 29 29 29 29 26 19 23 10 10 3 3 6 0 3 0 0 6 6 6 10 6 10 16 32 29
45 55 48 74 77 68 71 55 52 58 48 42 52 48 42 39 32 23 29 23 19 10 6 6 16 10 0 0 3 0 0 0 0 0 0 3 6 6 3 6 6 6 10
48 52 65 77 81 77 71 48 45 48 35 35 45 32 29 29 23 19 19 19 16 6 10 3 3 3 6 0 0 0 0 6 0 3 3 3 3 3 3 0 0 6 6
48 48 65 77 74 74 65 65 68 42 32 32 35 42 35 26 23 19 16 16 19 10 6 10 6 3 3 0 0 0 0 0 0 0 0 0 3 0 3 3 3 6 6
52 48 48 71 68 68 68 65 58 48 45 35 39 39 29 16 16 10 10 16 13 10 10 13 10 6 3 3 0 0 0 0 0 0 0 0 0 0 0 0 0 3 3

GEFSSE_con_cape1000_114.txt.gz
Probability
77 84 100 100 100 100 100 100 100 100 100 100 100 100 100 100 100 100 100 100 100 100 97 94 97 90 94 90 90 90 87 87 90 97 90 90 90 90 90 90 87 87 90
84 94 100 100 100 100 100 100 100 100 100 100 100 100 100 100 100 100 100 97 97 94 94 94 97 94 97 94 90 84 84 87 90 97 97 84 90 90 84 87 90 87 90
84 97 100 100 100 100 100 100 100 100 100 100 100 100 100 100 100 100 100 100 97 97 97 97 97 97 97 94 94 94 90 87 87 87 94 81 84 94 90 94 94 90 87
84 94 100 100 100 100 100 100 100 100 100 100 100 100 100 97 94 100 97 97 90 90 90 94 97 97 97 97 94 90 87 90 87 90 84 74 71 87 90 90 90 94 90
87 100 100 100 100 100 100 100 100 100 100 100 100 100 97 97 97 97 94 97 94 94 94 90 94 97 97 97 97 87 77 68 84 87 87 77 87 90 94 94 90 90 94
94 100 100 100 100 100 100 100 100 100 100 100 100 100 100 94 94 94 97 97 94 94 90 90 87 87 94 94 90 81 77 81 94 81 81 84 90 90 90 87 87 94 90
97 100 100 100 100 97 97 100 100 100 100 100 100 100 97 94 94 94 94 90 90 90 90 90 90 90 90 87 87 74 84 94 90 74 81 87 97 97 90 90 90 94 94
97 97 100 100 97 97 97 97 97 100 100 100 100 97 94 94 94 94 94 90 90 87 90 84 84 90 90 84 74 77 71 84 77 71 84 87 100 100 97 90 90 94 90
97 97 97 97 97 97 97 97 100 100 100 100 100 100 94 90 97 97 94 90 87 90 87 77 84 81 87 84 71 77 84 94 87 84 74 81 97 97 97 97 97 100 97
94 87 90 90 97 97 97 97 97 100 100 100 100 97 94 94 94 94 94 94 87 77 77 81 81 77 71 74 74 81 87 94 55 65 65 77 97 94 94 97 94 97 97
97 90 81 81 94 90 97 97 97 97 100 100 100 97 97 97 100 100 100 97 90 81 81 81 74 77 74 71 77 77 84 84 55 61 68 100 97 94 97 97 94 94 94
97 90 94 94 97 97 87 97 97 97 100 97 100 100 97 97 100 97 100 100 97 97 90 84 77 81 77 87 87 84 61 65 45 58 68 100 100 97 97 97 97 94 97
94 90 97 94 94 97 97 97 97 97 100 100 100 100 97 97 100 97 90 97 94 94 97 97 90 84 71 90 84 71 68 52 35 52 74 97 100 97 97 97 97 94 94
90 94 97 94 94 94 90 90 90 94 94 100 100 100 100 100 100 94 97 90 94 94 94 90 90 87 68 65 61 52 42 45 42 61 81 97 97 100 100 100 97 94 94
90 84 90 90 90 90 87 87 90 90 94 90 87 90 94 90 90 87 84 87 87 81 90 90 90 77 65 42 42 26 29 45 45 55 77 94 94 100 100 100 97 94 90
90 90 90 90 90 87 87 87 87 90 87 90 87 87 84 90 87 87 87 90 84 84 87 84 74 74 65 55 42 48 48 42 48 48 71 84 90 94 100 97 100 97 94
90 84 90 87 90 87 87 87 87 87 84 81 87 71 71 81 77 81 81 77 77 84 71 71 65 61 61 52 45 48 48 48 45 55 55 68 68 87 94 97 100 94 94
84 87 90 87 90 87 90 87 87 81 81 81 77 74 65 61 65 74 71 71 71 65 65 71 61 58 52 45 48 55 55 48 48 52 45 55 61 42 68 87 90 87 81
87 87 90 87 90 84 84 90 81 84 84 81 71 74 58 58 52 52 65 61 61 55 61 42 65 52 52 52 29 42 39 42 42 32 35 45 48 52 39 58 74 77 68
84 87 84 87 90 87 87 81 81 77 74 77 77 68 58 52 52 48 52 45 39 52 58 55 58 48 45 55 13 26 42 32 35 35 32 29 39 39 42 35 55 52 65
74 77 77 84 84 87 84 77 77 77 81 74 61 58 58 55 48 52 39 42 52 61 55 48 48 45 48 55 35 29 35 42 35 42 29 23 26 26 19 39 39 42 42
71 74 84 84 81 81 77 84 81 77 68 68 58 58 58 58 52 35 52 58 58 61 48 45 45 55 39 42 19 10 10 16 32 10 16 29 26 26 19 13 26 26 32
65 77 81 81 81 74 77 77 77 77 68 61 65 65 58 58 52 55 45 48 55 52 58 45 45 39 35 23 26 13 6 6 13 16 10 10 13 19 13 23 19 26 26
68 65 77 84 84 81 77 74 71 65 55 68 65 65 58 48 45 42 39 39 42 45 52 39 45 35 19 29 29 26 3 3 3 0 10 10 6 10 10 3 3 13 16
52 61 71 81 87 90 84 84 77 77 77 68 71 71 65 58 48 29 26 35 39 39 45 32 29 19 32 23 19 13 3 10 10 3 0 3 6 6 6 16 6 10 10
55 65 65 81 84 84 84 84 81 81 81 74 68 68 61 61 52 32 29 29 26 32 29 26 19 10 16 10 6 6 3 6 0 0 0 0 0 3 3 6 6 3 6

GEFSSE_con_cape1000_120.txt.gz
Probability
81 97 100 100 100 100 100 100 100 100 100 100 100 100 100 100 100 100 100 100 100 100 100 100 97 100 100 100 100 97 97 97 97 94 90 90 90 90 90 90 90 81 90
87 97 100 100 100 100 100 100 100 100 100 100 100 100 100 100 100 100 97 100 100 100 100 100 100 100 100 100 100 100 97 97 97 94 90 90 90 90 90 90 90 87 90
84 100 100 100 100 100 100 100 100 100 100 100 100 100 100 100 100 100 100 100 100 100 100 100 100 100 100 97 90 90 90 97 97 97 87 74 87 87 90 90 90 90 90
87 100 100 100 100 100 100 100 100 100 100 100 100 100 100 100 100 100 100 100 100 100 97 97 97 94 94 94 94 90 90 87 87 81 55 61 74 90 94 90 90 90 87
87 94 100 100 100 100 100 100 100 100 100 100 100 100 100 100 100 100 100 100 100 97 94 97 97 90 94 94 94 97 97 81 90 68 48 55 68 90 94 94 94 94 90
94 94 100 100 100 100 100 100 100 100 100 100 100 100 100 100 100 97 97 97 97 90 90 90 90 90 94 97 94 100 97 94 84 35 42 61 81 90 97 97 97 97 94
97 100 100 100 100 100 100 100 100 100 100 100 100 100 100 100 97 97 97 97 97 97 90 90 87 87 84 84 87 90 97 94 39 35 45 65 87 97 94 97 97 97 97
100 100 100 100 100 100 100 100 100 100 100 100 100 100 100 100 97 97 97 97 97 97 97 90 90 90 87 87 90 94 97 90 65 32 48 65 94 100 97 97 97 97 90
100 97 97 100 100 100 100 100 100 100 100 100 100 100 97 97 97 97 97 97 94 97 94 94 87 81 87 87 84 87 94 90 23 23 55 68 97 100 97 97 100 97 94
97 97 97 97 97 100 100 100 100 100 100 100 100 100 97 97 97 97 100 100 94 94 94 81 74 77 81 74 74 94 94 71 16 19 45 81 100 100 100 97 94 97 97
94 94 94 97 97 97 97 97 97 97 100 100 100 100 97 87 94 97 87 90 87 87 77 74 71 74 77 77 77 87 68 13 19 26 35 87 100 100 97 97 97 97 97
90 87 87 90 94 97 97 97 97 97 97 94 90 90 71 55 55 74 100 100 87 87 81 77 84 84 61 32 32 55 13 3 13 16 32 87 97 100 97 97 97 97 97
74 77 74 81 84 77 84 90 87 87 84 84 81 74 45 29 39 61 68 84 81 84 61 74 68 52 32 16 16 6 3 6 10 13 39 87 100 94 97 97 97 97 97
58 61 61 55 55 58 71 81 81 77 77 77 68 55 39 26 29 29 42 35 29 29 19 29 23 26 13 13 3 6 0 3 10 13 32 87 97 94 97 97 97 97 97
45 48 48 48 52 48 48 52 65 61 61 65 61 48 29 26 29 19 16 16 19 13 10 10 6 6 0 0 0 0 0 3 3 6 26 84 97 97 100 97 97 97 97
42 48 55 58 55 48 48 45 48 55 48 55 42 39 23 23 16 13 10 6 10 10 6 3 0 0 0 0 0 0 3 3 6 6 13 48 94 97 100 100 100 100 97
42 45 48 58 52 42 39 48 42 45 45 42 29 29 19 16 16 10 6 10 19 3 0 6 6 3 6 0 0 3 0 0 6 6 10 16 39 94 97 100 100 100 100
42 45 55 68 48 45 32 42 45 45 42 32 26 26 26 16 10 13 10 10 6 6 6 3 6 6 3 3 3 0 3 0 0 3 6 10 13 26 68 87 94 94 100
29 35 39 52 42 42 35 35 35 39 29 29 26 26 26 26 19 10 10 6 6 6 6 3 3 3 0 0 3 3 3 3 3 3 0 6 6 16 23 48 81 81 87
29 29 32 32 39 42 42 29 23 29 23 23 29 26 23 23 16 10 10 6 6 6 3 0 0 0 0 0 3 0 0 0 0 0 3 3 6 6 10 16 29 52 77
26 26 35 35 42 39 23 23 23 23 19 19 23 26 19 23 23 10 6 6 6 6 3 0 0 0 0 0 0 0 0 0 0 0 0 0 3 6 6 3 6 16 16
26 32 29 32 42 29 19 16 16 19 13 16 26 23 19 19 19 10 6 6 6 3 0 0 0 0 0 0 0 0 0 0 0 0 0 0 0 0 3 3 3 0 0
19 23 29 29 23 26 19 16 13 16 10 19 19 23 19 19 16 10 6 6 3 3 3 0 0 0 0 0 0 0 0 0 0 0 0 0 0 0 0 3 0 0 0
16 16 16 23 23 23 23 19 13 16 16 13 13 16 16 13 13 6 6 6 3 3 3 3 0 0 0 0 0 0 0 0 0 0 0 0 0 0 0 0 0 0 0
19 19 19 23 23 23 19 19 16 13 6 6 13 16 16 13 13 10 6 6 3 3 3 3 0 0 0 0 0 0 0 0 0 0 0 0 0 0 0 0 0 0 0
19 19 19 23 23 23 19 19 19 13 10 6 10 13 13 13 10 10 6 6 3 3 3 0 0 0 0 0 0 0 0 0 0 0 0 0 0 0 0 0 0 0 0

GEFSSE_con_cape1000_126.txt.gz
Probability
58 90 100 100 100 100 100 100 100 100 100 100 100 100 100 100 100 100 100 100 100 100 94 87 87 84 97 97 97 90 90 90 90 90 90 94 90 87 84 84 77 65 84
71 90 100 100 100 100 100 100 100 100 100 100 100 100 100 100 100 100 100 100 100 100 94 90 87 87 97 100 94 90 94 90 90 90 90 90 87 90 87 81 81 74 87
74 94 100 100 100 100 100 100 100 100 100 100 100 100 100 97 100 100 100 100 100 100 94 94 87 84 90 97 97 90 94 90 90 90 90 87 87 90 90 90 90 90 84
84 94 100 100 100 100 100 100 100 100 100 100 100 100 100 100 100 100 100 100 100 97 94 90 81 87 87 94 94 97 97 97 90 90 74 74 84 94 94 90 90 87 84
90 87 97 100 100 100 100 100 100 100 100 100 100 100 100 100 100 100 100 97 94 90 90 87 84 84 87 84 87 90 90 94 90 61 58 71 81 97 94 97 97 94 97
90 97 97 100 100 100 100 100 100 100 100 100 100 100 100 100 100 100 97 90 90 90 87 87 84 90 90 84 84 90 87 84 68 48 58 74 81 97 97 97 97 90 97
90 97 100 100 100 100 100 100 100 100 100 100 100 100 100 100 100 97 97 90 87 87 84 84 81 81 84 77 87 87 87 87 26 48 58 74 87 100 100 100 94 94 94
97 97 100 100 100 100 100 100 100 100 100 100 100 100 100 100 97 97 94 90 90 87 84 87 87 87 87 87 87 94 90 87 52 52 68 77 97 100 100 97 100 90 90
97 97 100 100 100 100 100 100 100 100 100 100 100 100 100 100 97 97 94 90 90 90 90 87 81 81 84 87 84 90 87 87 23 58 58 84 97 100 100 97 97 97 90
97 97 100 100 100 100 100 100 100 100 100 100 100 100 100 100 97 94 94 97 90 87 81 77 77 81 81 87 84 90 90 65 32 45 68 87 100 100 100 100 94 94 94
90 90 100 100 100 100 100 100 100 100 100 100 100 97 97 90 90 100 94 97 77 74 84 84 77 71 71 84 90 97 77 29 29 45 65 90 100 100 97 100 97 94 94
74 81 84 97 100 100 100 100 100 100 100 100 97 94 77 42 55 74 81 84 74 77 81 77 74 68 52 29 55 65 13 23 35 39 61 97 100 100 94 97 97 97 94
71 71 81 90 94 94 94 94 97 90 84 84 77 61 26 23 29 39 45 58 55 61 39 48 55 39 19 23 16 13 19 26 35 39 52 90 97 97 97 97 97 97 97
61 68 77 81 81 81 81 90 84 84 77 77 58 42 26 23 23 16 32 35 26 29 19 13 13 6 16 10 6 13 13 23 13 29 42 81 97 97 97 97 97 97 97
65 68 77 74 68 65 65 77 77 74 68 61 48 42 29 23 13 6 10 19 19 13 6 6 3 0 6 6 3 3 6 10 13 19 19 68 100 100 97 94 90 94 97
48 52 68 65 58 55 58 65 65 65 52 48 42 35 32 19 10 6 6 6 3 6 0 0 0 0 0 0 3 3 3 3 6 10 19 39 77 94 97 97 94 90 90
42 48 55 52 42 35 42 45 52 52 42 39 35 23 16 13 13 10 10 6 3 0 0 0 0 0 0 0 0 6 3 3 3 3 6 23 35 65 81 87 90 97 90
19 19 32 48 35 32 39 39 35 32 29 29 16 26 16 13 13 3 6 3 0 0 0 0 3 3 0 0 0 3 6 6 3 3 6 6 16 19 52 71 81 84 90
10 13 19 23 23 23 26 29 26 26 23 19 10 10 13 13 10 0 6 6 0 0 0 0 0 0 0 0 0 0 0 3 0 0 6 10 6 13 23 29 55 71 81
10 13 16 16 19 13 13 19 23 23 16 10 10 10 13 16 10 6 3 0 0 0 0 0 0 0 0 0 0 0 0 0 0 0 0 3 6 6 13 23 32 42 61
13 16 16 13 6 6 10 23 23 23 13 13 10 10 10 10 10 10 10 0 0 3 3 0 0 0 0 0 0 0 0 0 0 0 0 0 0 6 6 16 19 19 19
16 13 16 13 6 10 13 19 16 16 13 13 13 10 6 10 10 10 6 3 0 3 0 0 0 0 0 0 0 0 0 0 0 0 0 0 0 0 6 3 6 13 16
16 10 13 13 10 10 16 16 16 6 3 3 13 13 6 10 13 6 3 3 0 0 0 0 0 0 0 0 0 0 0 0 0 0 0 0 0 0 0 3 3 3 3
13 10 10 10 6 6 13 16 13 10 10 10 10 13 13 13 13 6 6 6 6 0 0 0 0 0 0 0 0 0 0 0 0 0 0 0 0 0 0 0 3 3 0
10 10 10 10 10 10 13 13 13 10 10 6 6 6 6 10 10 6 6 6 3 3 0 0 0 0 0 0 0 0 0 0 0 0 0 0 0 0 0 0 0 0 0
10 10 13 13 6 10 13 13 13 10 6 6 6 6 6 3 10 6 6 6 3 3 3 0 0 0 0 0 0 0 0 0 0 0 0 0 0 0 0 0 0 0 0

GEFSSE_con_cape1000_132.txt.gz
Probability
42 68 100 100 100 100 100 100 100 100 100 97 97 100 100 100 100 100 100 100 100 94 94 87 90 87 94 94 94 90 90 90 94 94 97 94 90 87 94 81 84 65 81
61 90 100 100 100 100 100 100 100 100 100 100 100 100 100 100 100 100 100 100 100 97 90 90 94 94 90 90 90 90 90 90 90 94 90 90 90 87 90 84 84 81 87
71 100 100 100 100 100 100 100 100 100 100 100 100 100 100 100 100 100 100 97 97 100 87 90 97 94 94 87 84 90 90 90 90 87 87 84 87 90 90 84 87 87 87
74 97 97 100 100 100 100 100 100 100 100 100 100 100 100 100 100 100 100 100 100 97 87 84 81 87 90 97 90 90 90 90 90 90 71 58 71 87 94 90 90 90 90
90 97 100 100 100 100 100 100 100 100 100 100 100 100 100 100 100 100 100 100 100 90 90 84 84 84 94 90 87 90 90 87 81 71 71 77 90 94 97 94 90 90 94
97 97 100 100 100 100 100 100 100 100 100 100 100 100 100 100 100 100 97 90 94 90 90 84 87 84 90 90 87 87 84 71 58 35 65 58 74 100 100 100 100 97 97
94 97 100 100 100 100 100 100 100 100 100 100 100 100 100 100 100 100 90 87 90 90 90 84 81 84 81 81 84 87 90 55 39 42 68 61 87 100 100 100 97 97 94
77 94 100 100 100 100 100 100 100 100 100 100 100 100 100 100 100 100 90 87 84 87 84 81 84 87 84 84 84 87 84 71 26 26 48 84 94 100 100 100 100 97 100
77 94 100 100 100 100 100 100 100 100 100 100 100 100 100 100 100 100 97 90 87 90 87 87 81 87 81 87 84 84 81 68 19 23 29 77 97 100 97 97 94 97 90
81 90 97 94 97 100 100 100 100 100 100 100 100 100 100 97 94 97 97 94 90 84 81 81 87 77 77 77 77 81 81 61 23 16 39 87 97 97 87 94 90 94 90
87 90 90 97 100 97 97 100 100 100 100 100 100 100 100 90 77 87 94 94 81 77 84 87 81 71 74 68 84 90 81 52 19 19 58 87 100 94 90 94 94 97 87
94 90 90 97 100 100 97 100 100 100 100 97 100 100 94 90 84 74 84 90 77 81 74 71 74 48 55 65 68 84 45 39 35 35 77 94 90 84 94 97 90 87 90
90 87 90 97 100 100 100 100 100 100 100 94 94 94 94 97 84 68 84 94 97 87 77 71 42 35 35 61 74 48 35 32 35 35 74 94 94 87 94 94 90 90 87
84 87 87 94 100 100 100 100 100 100 97 97 97 94 94 94 81 81 94 84 77 77 81 52 52 26 35 35 39 45 32 48 45 58 90 90 97 87 87 90 90 90 90
84 84 90 94 100 100 100 100 100 100 94 94 97 97 97 87 71 81 94 84 52 58 48 61 39 42 35 39 29 29 42 29 42 39 74 84 90 81 81 87 77 77 94
77 87 94 94 97 97 100 97 100 94 97 90 94 97 94 81 87 81 87 77 48 42 35 52 26 52 42 32 26 39 32 32 39 55 45 74 81 81 74 71 71 74 68
74 84 90 90 90 87 97 97 97 90 97 94 97 97 97 81 94 77 65 77 52 52 68 55 48 26 32 23 29 32 35 35 39 45 42 48 61 71 74 68 61 61 61
74 84 84 81 87 90 90 94 97 90 94 94 94 90 90 84 84 87 74 65 68 52 48 52 45 32 26 26 32 29 26 52 29 35 32 42 45 35 42 61 65 65 55
68 81 84 87 87 87 94 94 94 97 94 94 87 87 87 81 81 74 74 77 65 48 39 32 42 32 35 32 26 29 19 23 29 19 23 23 35 39 42 55 52 58 45
74 81 81 84 87 87 90 94 90 87 94 90 90 90 77 81 77 74 74 74 58 42 52 45 48 42 35 32 10 16 16 16 19 26 19 32 39 16 19 26 45 48 68
68 71 68 81 87 84 87 87 87 87 90 87 81 77 74 77 81 81 55 65 58 52 45 29 29 29 26 23 10 16 19 6 13 26 26 26 16 10 16 23 32 26 32
65 65 65 81 77 81 84 84 90 87 87 77 74 74 71 71 77 61 77 61 58 58 48 45 42 16 13 16 6 10 10 13 16 3 23 16 10 10 10 10 26 29 19
52 55 55 65 71 77 81 81 74 77 74 71 71 74 68 68 71 65 65 58 55 48 52 52 48 39 19 13 6 6 10 3 13 6 3 6 13 13 13 10 13 26 16
48 55 58 61 65 71 81 77 65 65 61 74 71 68 65 68 61 61 61 52 55 42 52 45 35 39 39 16 16 10 3 3 3 10 6 10 10 23 16 10 6 13 19
42 35 52 52 61 58 68 71 74 68 68 58 65 68 61 65 58 58 65 61 55 52 48 45 45 35 35 19 13 6 3 3 0 3 6 10 6 6 6 19 10 10 16
35 35 39 48 65 71 61 61 68 68 68 58 61 58 61 55 58 58 55 58 58 48 58 58 48 42 39 23 19 10 3 3 3 3 3 10 10 6 3 3 0 6 6

GEFSSE_con_cape1000_138.txt.gz
Probability
55 74 100 100 100 100 100 97 94 97 94 94 94 97 97 97 97 100 100 100 100 97 100 97 94 94 90 87 90 94 94 100 100 100 100 97 90 87 84 81 81 65 84
61 87 100 100 100 100 100 97 94 94 94 94 100 100 100 100 100 100 100 100 100 100 100 94 87 90 90 90 87 90 97 100 97 97 97 94 87 87 81 81 87 74 90
68 97 100 100 100 100 100 100 100 97 97 97 100 100 100 100 100 100 100 100 97 94 94 94 87 90 90 90 87 87 94 94 94 90 87 58 77 87 84 90 90 87 90
74 94 97 100 100 100 100 100 100 100 100 100 100 100 100 100 97 100 100 100 100 87 90 94 87 81 87 87 90 87 84 77 77 77 65 39 55 87 87 94 90 87 87
84 97 100 100 100 100 100 100 100 100 100 100 100 100 100 100 100 100 100 97 94 90 87 87 87 84 87 90 90 81 74 71 74 68 61 65 81 90 94 94 94 87 90
94 97 100 100 100 100 100 100 100 100 100 100 100 100 100 100 100 100 100 97 97 90 90 90 77 81 90 81 81 71 65 74 74 61 61 65 81 97 100 97 94 94 90
97 97 100 100 100 100 100 100 100 100 100 100 100 100 100 100 100 100 97 97 97 90 87 87 77 81 84 84 68 61 65 71 77 58 77 68 94 97 100 100 94 94 97
97 97 100 100 100 100 100 100 100 100 100 100 100 100 100 100 97 97 97 94 94 90 87 87 77 74 71 68 55 68 81 77 68 55 71 81 94 97 97 100 100 97 97
94 97 100 100 100 100 100 100 100 100 100 100 100 100 100 100 97 97 97 94 94 90 84 77 68 71 68 61 48 71 74 84 61 55 55 77 94 97 94 94 90 97 100
97 100 100 100 100 100 100 100 100 100 100 100 100 100 100 100 100 97 97 97 94 87 77 74 58 65 74 65 55 61 77 81 29 48 52 77 97 94 94 97 94 97 94
100 97 100 100 100 100 100 100 100 100 100 100 100 100 100 100 97 97 97 97 90 87 81 68 65 61 71 68 58 74 61 45 39 48 52 84 97 94 94 94 94 90 87
100 94 94 97 100 97 94 100 100 100 100 100 100 100 100 100 100 94 97 97 94 84 77 74 68 71 61 58 58 71 39 35 39 39 58 97 97 97 94 94 90 87 74
100 97 87 100 100 94 97 100 100 97 100 100 100 100 97 100 100 94 84 81 97 84 77 71 68 55 55 84 81 65 48 35 26 29 68 97 97 97 94 94 97 90 84
94 97 97 97 97 97 97 97 97 97 100 100 100 97 97 97 97 94 94 97 97 94 100 74 94 77 68 84 77 61 42 48 42 39 61 94 94 94 90 87 84 87 90
94 94 97 94 97 97 97 97 97 100 100 100 97 97 97 97 97 97 97 97 100 97 90 90 94 77 77 74 71 48 35 48 48 39 55 94 100 94 90 87 81 84 84
87 90 94 90 94 94 97 97 97 97 100 100 97 97 97 97 97 97 97 97 90 94 97 94 81 81 81 81 68 65 55 52 74 68 48 84 94 90 90 87 74 81 81
84 87 94 90 87 94 94 94 90 100 100 97 97 97 97 94 97 97 97 87 87 87 84 81 77 68 74 65 58 68 65 65 61 68 55 52 74 84 84 84 77 74 68
84 87 90 87 87 94 90 87 90 94 97 94 94 94 90 90 87 84 87 87 87 87 90 90 81 77 68 65 68 61 52 55 42 48 39 61 45 32 68 77 74 74 68
81 81 84 87 90 94 90 90 81 90 87 90 90 90 90 87 81 81 87 87 77 84 84 61 84 71 61 55 55 52 52 55 42 39 39 35 35 35 29 68 84 71 65
81 84 84 87 87 94 90 84 84 84 84 87 87 90 87 81 74 77 77 84 77 81 77 74 74 68 58 58 16 26 48 45 52 35 29 26 35 29 32 16 39 48 68
74 84 84 87 84 87 84 77 81 71 81 87 87 87 81 77 74 77 77 84 81 84 74 68 68 61 58 58 39 35 42 35 39 42 35 26 19 26 26 35 26 26 26
71 77 84 87 77 77 84 84 81 77 81 81 81 81 84 77 74 68 74 84 77 77 68 58 71 61 52 48 48 42 39 32 39 3 32 45 26 35 32 23 26 52 26
68 71 74 81 77 77 81 84 77 84 84 81 74 77 77 71 65 71 74 68 77 77 74 65 65 52 52 52 52 48 32 19 19 23 13 19 23 32 29 19 29 42 19
65 61 77 87 84 77 77 84 68 71 68 77 77 65 74 71 68 71 71 71 74 71 84 61 65 58 48 55 55 45 42 48 23 16 19 26 35 35 19 10 10 32 19
58 68 77 77 81 74 71 84 81 65 71 77 77 81 81 74 65 68 74 77 71 81 71 65 68 61 52 52 55 42 35 42 26 16 13 16 26 29 26 26 19 23 19
68 68 68 71 74 71 77 74 77 74 68 71 71 74 77 74 77 61 68 74 77 77 77 68 61 58 58 58 55 48 45 29 23 23 16 19 23 35 35 39 35 29 26